Boothville, LA

6:53 PM CDT on April 25, 2017 (GMT -0500)
Boothville

Weather History for KBVE - September, 2013

Change the Weather History Date:

Sunday, September 22, 2013

  Actual Average (KAXO) Record (KAXO)
Temperature  
Mean Temperature 77 °F -  
Max Temperature 79 °F 78 °F 91 °F (2016)
Min Temperature 75 °F 76 °F 68 °F (1999)
Cooling Degree Days 12    
Growing Degree Days 27 (Base 50)    
Moisture  
Dew Point 73 °F    
Average Humidity 89    
Maximum Humidity 100    
Minimum Humidity 78    
Precipitation  
Precipitation 1.18 in - - ()
Sea Level Pressure  
Sea Level Pressure 29.76 in    
Wind  
Wind Speed 6 mph (NE)    
Max Wind Speed 13 mph    
Max Gust Speed 21 mph    
Visibility 6 miles    
Events Fog , Rain    
Averages and records for this station are not official NWS values.
T = Trace of Precipitation, MM = Missing Value Source: NWS Daily Summary

Daily Weather History Graph

Daily Weather History Graph

Search for Another Location

Airport or City:

Trip Planner

Search our weather history database for the weather conditions in past years. The results will help you decide how hot, cold, wet, or windy it might be!

Date:

Astronomy

Sep. 22, 2013 Rise Set
Actual Time 6:46 AM CDT 6:53 PM CDT
Civil Twilight 6:22 AM CDT 7:17 PM CDT
Nautical Twilight 5:54 AM CDT 7:45 PM CDT
Astronomical Twilight 5:26 AM CDT 8:12 PM CDT
Moon 9:02 PM CDT (9/22) 9:48 AM CDT (9/22)
Length of Visible Light 12h 55m
Length of Day
12h 07m
Waning Gibbous, 88% of the Moon is Illuminated
Sep 22
Waning Gibbous
Sep 26
Last Quarter
Oct 4
New
Oct 11
First Quarter
Oct 18
Full

Hourly Weather History & Observations

Time (CDT) Temp. Dew Point Humidity Pressure Visibility Wind Dir Wind Speed Gust Speed Precip Events Conditions
12:34 AM 75.2 °F 71.6 °F 89% 29.75 in 10.0 mi Calm Calm - 0.00 in   Overcast
12:51 AM 77.0 °F 72.0 °F 84% 29.74 in 10.0 mi Calm Calm - 0.00 in   Overcast
1:51 AM 77.0 °F 73.0 °F 88% 29.74 in 5.0 mi NE 5.8 mph - 0.00 in Rain Light Rain
2:06 AM 75.2 °F 71.6 °F 89% 29.73 in 6.0 mi NNE 4.6 mph - 0.01 in Rain Rain
2:51 AM 75.9 °F 73.0 °F 91% 29.73 in 5.0 mi Variable 5.8 mph - 0.09 in Rain Rain
2:59 AM 75.2 °F 73.4 °F 94% 29.72 in 6.0 mi North 4.6 mph - 0.01 in Rain Light Rain
3:29 AM 75.2 °F 73.4 °F 94% 29.72 in 10.0 mi Variable 3.5 mph - 0.01 in   Overcast
3:51 AM 75.9 °F 73.0 °F 91% 29.73 in 10.0 mi NNE 4.6 mph - 0.01 in   Overcast
4:22 AM 75.2 °F 73.4 °F 94% 29.72 in 10.0 mi NNE 5.8 mph - 0.00 in   Overcast
4:51 AM 75.9 °F 73.0 °F 91% 29.71 in 10.0 mi NE 4.6 mph - 0.00 in   Scattered Clouds
5:09 AM 77.0 °F 73.4 °F 89% 29.71 in 10.0 mi NE 5.8 mph - N/A   Mostly Cloudy
5:14 AM 77.0 °F 73.4 °F 89% 29.71 in 10.0 mi NE 5.8 mph - N/A   Mostly Cloudy
5:40 AM 77.0 °F 73.4 °F 89% 29.72 in 10.0 mi NE 4.6 mph - N/A   Overcast
5:51 AM 77.0 °F 73.0 °F 88% 29.71 in 10.0 mi NE 5.8 mph - N/A   Overcast
6:11 AM 78.8 °F 73.4 °F 83% 29.72 in 10.0 mi NE 6.9 mph - N/A   Overcast
6:51 AM 78.1 °F 73.9 °F 87% 29.73 in 10.0 mi Variable 5.8 mph - N/A   Overcast
7:13 AM 78.8 °F 73.4 °F 83% 29.74 in 10.0 mi NE 6.9 mph - N/A   Overcast
7:51 AM 78.1 °F 73.9 °F 87% 29.75 in 10.0 mi NNE 6.9 mph - 0.00 in   Overcast
8:07 AM 78.8 °F 73.4 °F 83% 29.75 in 10.0 mi ENE 5.8 mph - N/A   Overcast
8:31 AM 78.8 °F 73.4 °F 83% 29.75 in 10.0 mi Calm Calm - N/A   Overcast
8:39 AM 78.8 °F 73.4 °F 83% 29.76 in 10.0 mi Calm Calm - N/A   Overcast
8:51 AM 77.0 °F 73.9 °F 90% 29.76 in 1.2 mi North 10.4 mph 17.3 mph 0.07 in Rain Heavy Rain
8:58 AM 75.2 °F 75.2 °F 100% 29.76 in 0.5 mi NNE 10.4 mph 20.7 mph 0.28 in Fog , Rain Heavy Rain
9:05 AM 75.2 °F 75.2 °F 100% 29.77 in 0.5 mi NNE 10.4 mph 18.4 mph 0.44 in Fog , Rain Heavy Rain
9:12 AM 75.2 °F 75.2 °F 100% 29.77 in 1.0 mi NNE 10.4 mph 17.3 mph 0.52 in Rain Heavy Rain
9:34 AM 75.2 °F 73.4 °F 94% 29.77 in 2.0 mi NNE 12.7 mph 19.6 mph 0.68 in Rain Rain
9:51 AM 75.9 °F 73.9 °F 94% 29.78 in 6.0 mi NNE 12.7 mph 20.7 mph 0.68 in Rain Light Rain
10:18 AM 75.2 °F 73.4 °F 94% 29.78 in 9.0 mi NE 11.5 mph 19.6 mph 0.00 in   Overcast
10:30 AM 77.0 °F 73.4 °F 89% 29.78 in 9.0 mi NE 10.4 mph - 0.00 in   Overcast
10:51 AM 77.0 °F 73.9 °F 90% 29.79 in 8.0 mi NE 11.5 mph 18.4 mph 0.00 in   Overcast
11:14 AM 77.0 °F 73.4 °F 89% 29.78 in 4.0 mi NE 11.5 mph - 0.00 in Rain Light Rain
11:39 AM 77.0 °F 73.4 °F 89% 29.80 in 2.0 mi ENE 10.4 mph - 0.01 in Rain Light Rain
11:51 AM 77.0 °F 73.9 °F 90% 29.80 in 2.5 mi ENE 10.4 mph 16.1 mph 0.03 in Rain Light Rain
11:56 AM 77.0 °F 73.4 °F 89% 29.79 in 3.0 mi NE 11.5 mph - 0.00 in Rain Light Rain
12:03 PM 77.0 °F 73.4 °F 89% 29.79 in 3.0 mi NE 8.1 mph 16.1 mph 0.00 in Rain Light Rain
12:51 PM 77.0 °F 73.9 °F 90% 29.78 in 9.0 mi NE 9.2 mph - 0.02 in   Overcast
1:02 PM 77.0 °F 73.4 °F 89% 29.77 in 8.0 mi NE 10.4 mph - N/A   Overcast
1:51 PM 77.0 °F 73.9 °F 90% 29.76 in 8.0 mi NE 9.2 mph - N/A   Overcast
2:09 PM 77.0 °F 73.4 °F 89% 29.76 in 9.0 mi NNE 9.2 mph - N/A   Overcast
2:24 PM 77.0 °F 73.4 °F 89% 29.76 in 9.0 mi NE 8.1 mph 17.3 mph N/A   Overcast
2:40 PM 77.0 °F 73.4 °F 89% 29.76 in 9.0 mi NNE 11.5 mph 18.4 mph N/A   Overcast
2:51 PM 77.0 °F 73.0 °F 88% 29.76 in 2.5 mi NE 6.9 mph 17.3 mph 0.01 in Rain Rain
3:01 PM 77.0 °F 73.4 °F 89% 29.75 in 1.5 mi NE 8.1 mph - 0.05 in Rain Heavy Rain
3:06 PM 77.0 °F 73.4 °F 89% 29.75 in 2.0 mi NE 8.1 mph - 0.05 in Rain Light Rain
3:26 PM 77.0 °F 73.4 °F 89% 29.74 in 1.8 mi NE 9.2 mph - 0.08 in Rain Light Rain
3:33 PM 77.0 °F 73.4 °F 89% 29.74 in 2.5 mi NE 6.9 mph - 0.08 in Rain Light Rain
3:35 PM 77.0 °F 73.4 °F 89% 29.75 in 3.0 mi NE 8.1 mph - 0.08 in Rain Light Rain
3:42 PM 77.0 °F 73.4 °F 89% 29.75 in 4.0 mi NE 8.1 mph - 0.08 in Rain Light Rain
3:51 PM 77.0 °F 73.0 °F 88% 29.75 in 3.0 mi NE 9.2 mph - 0.09 in Rain Light Rain
4:00 PM 77.0 °F 73.4 °F 89% 29.75 in 2.5 mi NE 9.2 mph - 0.00 in Rain Light Rain
4:19 PM 75.2 °F 73.4 °F 94% 29.75 in 1.8 mi NE 8.1 mph - 0.03 in Rain Rain
4:32 PM 75.2 °F 73.4 °F 94% 29.75 in 2.5 mi NNE 6.9 mph - 0.06 in Rain Light Rain
4:35 PM 75.2 °F 73.4 °F 94% 29.75 in 2.0 mi NNE 6.9 mph - 0.06 in Rain Rain
4:37 PM 75.2 °F 73.4 °F 94% 29.75 in 1.8 mi NNE 6.9 mph - 0.07 in Rain Heavy Rain
4:44 PM 75.2 °F 73.4 °F 94% 29.75 in 1.5 mi NNE 6.9 mph - 0.11 in Rain Rain
4:51 PM 75.9 °F 73.0 °F 91% 29.75 in 1.8 mi NNE 10.4 mph - 0.13 in Rain Rain
5:01 PM 75.2 °F 73.4 °F 94% 29.75 in 2.0 mi NNE 6.9 mph - 0.03 in Rain Rain
5:16 PM 75.2 °F 73.4 °F 94% 29.76 in 3.0 mi NNE 8.1 mph - 0.05 in Rain Light Rain
5:23 PM 75.2 °F 73.4 °F 94% 29.76 in 3.0 mi NNE 6.9 mph - 0.05 in Rain Light Rain
5:40 PM 75.2 °F 73.4 °F 94% 29.76 in 6.0 mi North 6.9 mph - 0.05 in Rain Light Rain
5:51 PM 75.9 °F 73.0 °F 91% 29.77 in 6.0 mi NNE 5.8 mph - 0.05 in Rain Light Rain
6:48 PM 77.0 °F 73.4 °F 89% 29.76 in 8.0 mi NNE 6.9 mph - 0.00 in Rain Light Rain
6:51 PM 77.0 °F 73.0 °F 88% 29.76 in 8.0 mi Variable 6.9 mph - 0.00 in Rain Light Rain
7:51 PM 78.1 °F 72.0 °F 81% 29.78 in 9.0 mi NE 6.9 mph - 0.00 in   Mostly Cloudy
8:17 PM 78.8 °F 71.6 °F 78% 29.78 in 10.0 mi NE 8.1 mph - 0.00 in Rain Light Rain
8:38 PM 78.8 °F 71.6 °F 78% 29.78 in 10.0 mi NE 9.2 mph - 0.00 in   Overcast
8:51 PM 78.1 °F 71.1 °F 79% 29.78 in 10.0 mi NE 6.9 mph - 0.00 in   Mostly Cloudy
9:27 PM 78.8 °F 71.6 °F 78% 29.78 in 10.0 mi NNE 8.1 mph - N/A   Mostly Cloudy
9:36 PM 78.8 °F 71.6 °F 78% 29.78 in 10.0 mi NE 8.1 mph - N/A   Scattered Clouds
9:51 PM 78.1 °F 71.1 °F 79% 29.78 in 10.0 mi NNE 6.9 mph 16.1 mph N/A   Partly Cloudy
10:16 PM 78.8 °F 71.6 °F 78% 29.78 in 10.0 mi NE 6.9 mph - N/A   Mostly Cloudy
10:51 PM 79.0 °F 72.0 °F 79% 29.79 in 10.0 mi NE 9.2 mph - N/A   Overcast
11:51 PM 79.0 °F 73.0 °F 82% 29.78 in 10.0 mi East 9.2 mph - N/A   Overcast